DECAYED

STARLINK-31761, 59615 (Decayed)

Orbit data source: Space-Track

STARLINK-31761, 59615 was a payload satellite owned by SpaceX/Seattle (US) in LEO that was launched on Sun, 28 Apr 2024 UTC via an FALCON 9 launch vehicle from the Air Force Eastern Test Range (AFETR). Payload-class satellites include a variety of spacecraft equipped with specific instruments for various scientific and technological missions. These include communications satellites like Starlink; space stations such as the ISS; scientific satellites like the Hubble; Earth observation satellites from companies like Planet Labs, Umbra, and HawkEye 360; GPS; miniature CubeSats for education and research; and military/defense satellites.

Not visible in the next 10 days
Identifier
59615, 2024-080Q
Orbit
Decayed
Country
Flag of USUS
Related business
Manufacturer
SpaceX/Seattle
Mission
Decayed Commercial Communications
Bus & Motor
STARLINK V2M, Unknown motor
Mass
730 kg wet, ~700 kg dry
Launch date (UTC)
2024-04-28 (2 years ago)
Launch vehicle
FALCON 9
Launch site
Air Force Eastern Test Range (AFETR)
Object type
Payload
Rocket body
Debris
Shape & HBR
Box + 2 Pan, 17.7 m
Radar Cross Section
33.884 m², Large (>1 m²)

Expand to show TLE details & history
Last TLE update: 2 months ago

TLE from 2 months ago
0 STARLINK-31761
1 59615U 24080Q   26127.16214144  .05273590  88185-5  22600-2 0  9999
2 59615  42.9807  30.7317 0019940 228.6603 131.2568 16.21215187113880
Epoch: 2026-05-07T03:53Z
TLE epoch observation values (Epoch: 2026-05-07T03:53:29.020Z)
Latitude
0.00002°
Longitude
107.34856°
Altitude
224.703 km
Speed
7.769 km/s
True Right ascension
02h 02m 55s
True Declination
0° 00' 00"
Sunlit
Object was in daylight at epoch
Visualization orbit readout
Latitude
Unknown
Longitude
Unknown
Altitude
Unknown
Speed
Unknown
Apparent Right ascension
Unknown
Apparent Declination
Unknown
Sunlit
N/A
Visualization observer readout
Local Sidereal Time
23:18:56
Azimuth
Unknown
Elevation
Unknown
Doppler factor
Unknown
Orbital elements
Apogee altitude
231.435 km
Perigee altitude
205.128 km
Semi-major axis
6,596.419 km
Eccentricity
0.00199
Inclination
42.9807°
RAAN
30.7317°
Arg. of periapsis
228.6603°
True anomaly
131.42829°
Mean anomaly
131.2568°
Eccentric anomaly
131.34257°
Mean motion
4.05117 °/min
Orbital period
88.86 mins
BSTAR
0.00226
Loading maneuver chart data...
Computing Atmospheric mass density...
Loading historical data...
Loading historical data...
Loading historical data...
Loading historical data...
Loading historical data...
Loading historical data...
Loading historical data...

Documentation

Showing up to 5 results
|